Vorticity
nan nan nan nan nan nan nan nan nan nan nan nan nan nan nan nan nan nan nan nan nan nan nan nan nan nan nan nan nan nan nan nan nan nan nan nan nan nan nan nan nan nan nan nan nan nan nan nan nan nan nan nan nan nan nan nan nan nan nan nan nan nan nan nan nan nan nan nan nan nan nan nan nan nan nan nan nan nan nan nan nan nan nan nan nan nan
nan 8 6 7 11 11 7 6 10 11 9 9 9 8 8 9 10 7 4 6 8 9 8 6 6 6 1 -5 -3 3 5 6 6 7 8 9 10 10 10 10 10 10 10 10 11 11 11 11 11 11 11 10 10 10 10 10 10 10 10 10 10 10 10 10 11 11 11 10 10 10 9 10 9 9 9 9 9 9 10 9 10 10 9 9 9 nan
nan 8 7 7 8 10 8 7 10 10 10 10 9 8 8 9 11 10 8 6 7 8 8 7 6 6 3 -3 -5 -0 6 6 5 6 7 9 10 10 10 10 10 10 10 10 10 10 10 10 10 10 10 10 9 9 9 9 9 9 9 9 9 8 8 9 9 9 9 9 9 9 9 9 8 8 9 8 8 8 8 8 9 9 9 9 9 nan
nan 8 8 8 7 7 8 9 10 10 10 10 10 9 10 10 9 9 9 9 9 9 7 7 7 8 6 -1 -5 -3 4 7 5 4 6 8 9 10 10 9 9 10 10 10 10 10 10 10 10 10 9 9 9 9 9 9 9 9 8 8 8 8 8 8 9 9 9 9 9 10 10 9 9 9 9 9 9 9 9 10 10 10 10 10 10 nan
nan 9 10 9 7 6 7 9 10 10 10 10 10 11 11 11 9 8 9 10 10 10 7 5 6 9 9 4 -3 -3 3 6 5 4 5 7 8 10 10 10 9 9 9 9 9 10 9 9 9 9 9 9 9 9 9 9 9 9 9 9 9 9 9 9 10 10 10 10 10 10 11 10 10 11 11 11 11 11 11 11 12 12 12 11 11 nan
nan 11 12 11 8 6 6 8 10 11 10 9 9 10 10 11 10 9 9 10 10 11 8 5 4 6 8 4 -1 -0 3 6 6 5 4 6 8 9 10 10 10 10 9 9 9 9 9 9 9 9 9 9 9 9 9 9 9 9 9 9 9 9 10 10 10 10 10 10 11 11 11 11 11 11 11 11 12 12 12 12 12 13 13 13 13 nan
nan 11 13 12 11 8 7 6 8 13 12 9 9 9 10 10 10 9 8 9 11 11 9 6 4 3 3 1 0 3 4 4 3 1 1 2 5 7 10 11 11 10 9 8 8 9 9 9 9 8 9 8 8 8 8 8 8 9 9 9 9 9 9 9 9 10 10 10 10 10 10 10 10 10 10 10 11 11 11 11 11 12 12 12 13 nan
nan 11 12 13 12 11 9 6 6 11 13 11 9 9 10 11 10 8 7 8 10 12 11 8 5 4 3 2 3 6 9 7 4 -0 -3 -4 -2 2 7 9 10 10 9 8 8 8 8 8 7 7 7 7 8 8 7 8 8 8 8 8 9 9 9 9 9 9 9 9 9 9 9 9 9 9 9 9 10 10 9 9 10 10 10 10 11 nan
nan 9 10 11 11 12 10 7 6 8 12 11 9 8 9 11 12 10 9 8 8 10 11 9 7 6 5 6 6 6 9 12 12 9 6 3 2 2 4 7 7 8 8 7 7 7 7 6 6 6 6 6 7 7 7 7 8 8 8 9 9 9 9 9 9 9 9 9 9 9 9 9 9 10 10 10 10 10 10 10 10 10 10 10 10 nan
nan 9 9 9 10 10 10 8 7 7 10 11 10 8 7 8 11 10 10 9 9 10 9 8 8 7 8 8 8 7 6 7 8 10 10 10 10 10 9 9 8 5 5 6 7 7 6 6 5 5 5 6 6 6 7 7 8 8 9 9 9 9 9 9 9 9 9 9 9 9 10 10 10 10 10 11 11 11 11 11 11 11 11 11 11 nan
nan 9 9 8 9 10 10 9 8 7 9 11 10 8 6 7 9 8 9 9 10 11 9 7 7 7 9 9 8 9 9 8 4 2 -2 1 3 6 7 8 7 5 3 4 5 5 6 5 5 4 4 5 6 7 7 7 7 8 8 9 9 9 9 9 9 9 9 9 9 9 10 10 10 10 11 10 10 10 11 11 11 12 12 12 12 nan
nan 10 9 9 9 9 9 10 10 8 8 10 10 7 6 8 9 9 8 8 9 11 10 7 6 6 7 9 9 10 11 11 9 6 0 -3 -2 1 3 4 3 2 1 1 0 1 3 4 4 4 4 4 4 6 7 7 7 8 8 9 9 8 8 9 9 9 9 9 9 9 10 10 10 10 10 10 10 10 10 10 10 11 11 11 11 nan
nan 11 9 9 9 9 9 10 11 9 9 9 9 8 8 9 9 10 9 8 10 11 12 9 6 5 5 8 10 11 11 11 11 12 9 5 4 6 7 6 5 5 4 3 -0 -3 -2 1 2 2 3 3 3 3 5 7 7 8 8 8 8 8 8 8 9 9 9 9 9 9 9 9 10 9 9 9 9 9 9 9 9 9 10 10 10 nan
nan 11 10 9 9 9 8 9 10 10 10 9 9 10 9 9 9 10 10 9 11 12 15 13 7 4 3 5 8 12 13 12 12 12 11 8 7 8 10 10 10 9 9 8 5 1 1 4 2 -2 -1 2 1 1 2 5 6 8 8 8 8 8 8 9 9 9 9 9 9 9 9 9 9 9 9 9 9 9 9 9 9 9 9 9 10 nan
nan 11 11 10 10 9 8 8 9 9 9 9 9 10 11 10 10 10 10 10 11 12 15 13 9 6 3 1 4 10 13 13 12 11 10 9 7 8 10 11 11 11 10 9 7 4 5 8 6 3 -1 0 1 0 1 3 4 6 8 8 8 9 9 9 9 9 9 10 9 9 9 9 9 9 10 10 9 9 9 9 9 10 9 9 10 nan
nan 10 9 9 9 9 9 9 9 8 9 9 10 10 11 11 11 11 10 11 12 13 12 11 10 9 5 1 1 6 12 14 12 10 11 9 6 7 9 10 11 11 10 9 8 7 8 9 8 8 2 -3 -2 2 5 5 5 6 8 8 9 9 9 9 9 9 9 9 10 10 10 10 10 10 10 10 10 10 10 10 10 10 10 10 10 nan
nan 10 9 9 9 9 9 9 9 9 10 10 10 10 10 10 11 11 11 12 12 12 11 11 11 10 7 2 -0 2 10 14 13 11 11 10 7 6 8 9 10 11 11 10 9 9 9 9 9 8 2 -4 -2 2 6 6 6 6 8 8 8 8 9 9 9 9 9 9 9 9 9 10 10 10 10 10 10 10 10 10 10 10 10 10 10 nan
nan 10 10 10 9 9 9 9 9 10 10 10 10 10 10 9 10 11 11 11 11 11 11 12 12 11 9 5 1 1 8 13 13 12 12 10 9 7 7 9 10 11 11 10 10 10 10 9 6 2 -3 -2 2 4 5 6 6 7 7 7 7 7 7 7 8 8 8 8 8 9 9 10 10 11 11 11 11 11 11 11 11 10 11 10 10 nan
nan 10 11 11 10 9 9 9 10 11 11 10 10 10 10 10 10 10 10 10 10 10 10 10 10 11 11 8 4 4 8 12 13 12 11 10 9 7 7 8 9 11 11 10 10 10 10 7 4 1 1 4 6 6 6 6 6 7 7 7 7 7 7 7 7 7 8 8 8 9 10 10 10 11 11 11 11 11 11 11 11 11 11 11 11 nan
nan 10 11 11 10 9 8 9 10 11 12 12 12 11 10 9 9 10 10 10 10 10 10 9 9 9 9 8 6 6 9 12 13 12 11 10 9 8 7 8 9 11 11 10 10 8 8 8 9 9 8 7 7 7 7 7 7 8 8 9 8 8 8 8 8 8 9 9 10 10 11 12 12 12 12 12 12 12 12 12 13 13 13 13 13 nan
nan 8 10 12 11 11 8 7 8 10 13 15 15 12 9 9 8 9 9 10 9 9 10 9 9 9 9 8 6 6 8 11 13 13 12 11 10 8 7 8 9 10 11 11 10 8 9 10 12 11 7 5 7 8 8 9 9 10 11 11 11 11 11 11 10 10 11 11 12 12 13 13 13 13 12 12 13 13 13 13 14 14 14 15 15 nan
nan 7 8 12 13 12 10 7 5 7 12 17 17 14 10 9 8 8 9 9 9 9 10 10 10 11 11 9 7 6 7 9 12 13 12 10 9 9 9 9 9 10 10 10 9 9 10 11 10 6 2 2 6 8 9 10 10 11 13 13 13 13 12 11 11 11 11 12 12 13 13 13 13 13 13 13 13 13 14 14 14 14 15 15 16 nan
nan 9 9 11 13 12 11 10 7 5 8 13 14 14 12 10 9 9 10 11 10 11 12 12 13 13 13 9 7 6 6 9 11 12 11 9 9 9 9 9 9 10 10 10 8 8 10 12 10 6 -2 -3 5 7 8 10 11 12 12 13 12 12 10 10 10 10 10 11 12 12 12 12 12 12 12 13 13 13 13 13 13 14 14 15 15 nan
nan 10 11 12 13 15 15 14 13 11 9 10 11 11 12 12 12 12 12 13 13 14 14 15 15 15 13 10 7 5 5 8 10 12 11 9 9 9 8 7 8 10 11 10 9 9 11 13 12 10 -1 -8 -0 4 7 9 10 10 11 11 10 10 9 8 8 9 9 10 10 10 11 11 11 11 12 12 12 12 12 12 12 13 14 14 14 nan
nan 14 14 12 12 16 19 20 21 22 19 14 11 10 11 12 13 14 16 15 15 14 14 14 13 13 12 11 8 7 6 7 9 11 11 9 10 10 9 8 9 9 10 11 10 11 12 12 11 9 3 -4 -3 1 5 7 8 9 9 9 9 9 8 8 8 9 9 10 10 10 10 10 10 11 11 11 11 10 10 11 12 13 14 15 14 nan
nan 18 17 14 12 13 16 19 22 25 28 25 19 15 12 11 12 13 14 13 13 12 13 12 11 10 12 11 10 8 8 7 8 10 12 10 10 10 10 9 9 8 9 11 10 10 11 12 11 9 5 2 -1 0 3 5 6 6 7 8 9 9 9 9 9 9 9 9 9 9 9 9 9 10 10 10 10 9 9 10 11 14 16 17 16 nan
nan 14 14 13 12 11 11 11 12 15 19 23 24 24 19 14 12 10 11 11 11 11 11 11 10 10 12 12 10 9 8 8 9 9 11 11 10 10 9 9 8 9 11 11 10 8 10 13 10 8 7 7 5 1 1 4 4 5 6 8 8 9 9 9 9 9 9 9 9 9 9 9 9 10 10 10 9 9 8 10 13 16 19 21 20 nan
nan 8 7 8 8 8 8 8 8 8 10 12 15 22 23 16 10 8 8 9 9 10 10 10 11 11 11 11 10 8 7 8 9 10 11 12 9 8 8 9 9 10 12 11 10 9 13 14 11 9 8 8 8 6 3 4 5 5 5 7 7 8 8 8 9 9 8 8 9 9 9 9 9 10 10 10 9 8 8 11 16 21 25 24 22 nan
nan 2 2 3 4 5 6 5 3 3 6 8 11 17 21 17 9 7 7 7 8 9 8 9 10 11 11 10 10 8 8 8 9 10 12 11 9 7 8 9 10 11 12 12 12 12 13 13 11 9 7 7 11 11 8 7 8 7 6 5 7 7 6 7 8 8 8 8 9 9 9 9 9 10 10 9 9 8 9 13 21 27 26 20 17 nan
nan 1 -0 -1 2 3 6 4 -1 -3 -1 4 9 15 19 17 11 8 7 7 8 8 7 8 9 11 11 11 11 11 10 8 9 10 11 10 9 8 9 9 9 10 12 13 12 12 11 11 10 9 7 9 12 12 11 10 11 10 7 6 7 5 4 5 6 6 6 7 8 9 9 10 10 10 10 9 9 9 9 16 27 31 24 15 13 nan
nan 7 6 4 4 5 6 7 3 -1 -2 1 6 12 15 15 13 11 9 8 8 7 7 7 8 9 10 11 11 10 10 8 8 10 11 9 9 9 9 9 9 10 11 11 11 10 10 11 10 11 10 12 12 11 10 10 11 11 10 10 8 3 2 5 7 6 5 5 6 8 10 10 10 10 10 9 9 9 10 17 27 31 23 13 11 nan
nan 10 11 10 10 9 8 9 8 6 4 5 6 8 10 12 13 13 12 10 8 7 7 7 7 8 9 10 9 9 8 7 5 8 11 11 11 11 9 8 9 10 10 10 9 9 9 9 10 10 11 12 11 10 9 10 11 10 10 12 11 4 4 8 8 7 3 2 4 6 9 9 10 10 10 9 8 8 9 15 24 29 24 15 12 nan
nan 11 10 11 12 11 10 10 10 9 9 9 9 9 9 9 11 13 14 13 10 8 7 7 7 8 9 9 10 9 8 6 2 4 11 14 12 11 9 9 9 10 10 11 11 10 8 7 8 9 10 11 10 9 8 8 10 10 10 11 11 7 8 11 10 8 4 2 4 4 5 8 9 9 9 8 8 7 7 11 18 24 26 20 13 nan
nan 10 11 11 12 11 10 10 10 10 10 10 9 10 11 10 10 11 14 15 13 11 9 8 8 8 8 9 10 9 9 5 1 2 10 15 12 10 9 9 9 10 10 11 11 11 9 7 8 9 10 10 10 10 8 8 9 10 10 10 11 11 11 11 10 8 5 6 6 5 5 7 7 7 8 7 6 5 5 7 10 14 23 26 19 nan
nan 9 11 11 11 10 10 10 10 10 11 10 10 10 11 11 11 11 13 15 15 13 10 9 9 8 8 7 7 7 7 5 1 3 9 13 12 11 10 10 9 9 10 10 10 11 10 8 7 8 10 11 11 11 9 9 8 9 8 9 11 12 13 11 10 8 7 7 8 7 8 9 8 7 5 2 2 3 4 5 6 7 13 20 23 nan
nan 9 11 11 10 10 9 10 10 11 11 12 11 10 10 11 11 11 12 13 14 14 14 12 10 9 7 7 6 5 5 4 3 5 9 12 12 11 10 9 8 9 10 10 10 10 9 8 7 8 10 12 12 11 9 8 9 9 8 9 10 12 13 12 11 9 8 7 7 8 9 9 9 8 3 -2 2 5 7 6 6 6 7 11 16 nan
nan 9 10 11 10 9 9 10 10 10 11 11 10 9 10 10 9 10 11 12 13 14 16 16 14 12 8 6 6 5 4 4 4 5 8 12 11 11 9 8 8 9 9 9 9 10 10 9 9 9 10 11 10 9 8 8 8 9 9 9 9 10 12 13 12 11 9 7 8 7 7 8 8 9 4 3 9 11 10 9 8 6 5 7 8 nan
nan 10 10 11 11 10 10 10 10 10 11 10 9 9 9 9 9 10 12 12 13 14 15 16 16 16 15 13 10 7 6 5 5 6 10 12 12 11 8 7 8 9 10 10 10 10 9 9 9 9 9 9 9 8 8 9 9 9 9 9 10 9 10 11 12 12 10 8 8 7 7 8 9 9 9 11 15 14 12 9 6 4 6 7 5 nan
nan 9 9 10 11 11 10 9 9 10 10 10 10 10 10 10 11 13 13 13 13 12 12 12 13 14 17 18 17 14 13 12 11 11 14 15 13 11 8 7 8 9 11 11 11 11 10 9 8 7 8 9 9 10 10 9 9 9 10 11 11 9 8 10 10 11 11 10 9 9 9 8 8 9 11 11 12 12 11 9 7 8 12 10 3 nan
nan 9 9 9 11 12 10 9 10 10 10 10 10 12 13 13 13 13 12 12 12 11 11 11 12 12 13 15 15 15 16 15 13 15 17 15 13 10 9 8 8 9 11 12 12 11 10 9 8 8 9 9 8 9 10 8 6 6 10 13 10 6 6 9 10 11 11 11 11 11 10 8 7 7 9 10 11 11 11 10 8 9 12 12 9 nan
nan 11 10 10 10 10 11 11 11 11 12 12 12 13 12 12 13 12 12 12 12 12 11 10 11 12 12 12 11 11 12 12 12 14 14 11 10 10 10 10 10 10 11 11 11 11 10 10 10 10 11 9 9 9 10 7 4 6 12 14 10 7 7 9 10 10 10 11 11 11 10 9 8 8 8 9 11 11 10 10 9 9 11 12 11 nan
nan 12 12 11 10 11 10 9 10 12 14 14 12 11 10 11 11 12 11 11 12 11 10 10 10 11 12 12 12 12 12 12 12 12 11 11 10 10 10 11 11 11 11 11 11 11 10 10 11 11 9 9 9 10 10 8 7 9 12 11 10 12 14 12 11 9 9 10 11 10 11 13 11 9 8 9 10 10 10 10 8 9 12 12 11 nan
nan 12 11 11 11 10 10 12 13 14 13 12 11 11 10 10 10 10 11 11 9 9 10 11 11 12 12 12 12 12 14 14 13 12 12 11 10 10 11 11 12 12 12 11 12 12 12 11 11 11 10 10 9 8 8 9 10 11 9 8 12 16 15 11 9 8 9 10 11 11 12 13 12 11 10 10 9 9 10 8 7 9 13 14 11 nan
nan 11 11 11 12 12 12 12 12 12 11 11 10 11 10 9 10 11 12 11 8 9 12 12 12 13 12 11 11 12 13 14 14 14 11 7 9 11 12 12 13 14 12 11 11 11 11 11 12 12 12 11 10 9 9 9 10 11 9 9 12 13 11 8 8 10 10 10 10 10 10 12 13 13 13 11 10 9 10 10 9 8 10 12 11 nan
nan 10 11 11 11 11 11 11 11 11 11 10 10 10 9 10 11 11 11 10 9 11 12 12 12 13 11 10 11 12 12 13 14 14 10 6 8 13 16 13 13 13 13 12 11 10 9 10 11 11 12 11 11 9 9 9 9 9 8 10 13 13 11 10 10 10 10 10 9 9 10 12 13 14 13 11 10 10 9 9 9 9 9 10 10 nan
nan 10 10 11 10 9 9 12 12 12 10 9 10 10 10 11 11 10 10 11 11 12 11 11 11 11 9 10 11 11 11 12 12 12 11 11 12 13 13 12 12 12 13 13 13 12 10 10 10 11 11 11 11 10 9 8 9 9 9 10 13 14 12 12 11 10 10 11 10 9 10 14 15 14 12 12 12 12 11 10 9 8 8 9 10 nan
nan 11 11 11 10 10 9 10 11 11 10 10 10 10 11 11 11 11 11 12 12 11 11 12 11 10 9 10 11 10 10 11 11 11 10 10 12 13 12 11 11 13 14 13 14 15 15 14 13 11 9 9 9 10 9 9 9 9 9 10 11 12 11 10 10 10 10 10 9 9 12 15 14 12 11 12 13 13 12 11 10 9 8 8 8 nan
nan 11 11 11 10 10 10 10 10 10 10 10 11 10 9 8 9 13 14 11 12 11 12 12 11 11 11 11 11 10 11 11 11 11 10 10 11 11 11 12 12 14 14 14 15 17 18 18 16 12 8 7 8 8 8 9 10 11 10 10 10 10 10 9 9 10 11 9 9 10 14 15 13 11 11 12 13 13 13 11 11 10 9 8 8 nan
nan 10 10 11 10 10 10 9 9 9 9 10 11 11 9 7 9 15 16 12 12 12 12 11 11 12 12 11 10 10 11 13 12 11 11 11 11 10 10 11 12 14 13 13 15 15 17 18 17 14 10 9 9 9 9 9 10 12 11 11 10 10 10 9 9 10 11 10 10 12 15 15 13 12 11 11 11 12 13 13 12 11 10 9 8 nan
nan 10 10 11 10 10 10 10 10 10 9 10 11 12 11 11 12 14 13 12 12 12 11 11 11 11 11 10 10 10 12 13 12 11 11 11 10 9 10 11 12 13 13 12 13 13 14 16 17 17 14 12 13 12 10 9 10 12 12 11 11 11 10 10 9 9 10 11 12 13 15 15 14 13 12 11 12 12 13 13 12 11 10 10 9 nan
nan nan nan nan nan nan nan nan nan nan nan nan nan nan nan nan nan nan nan nan nan nan nan nan nan nan nan nan nan nan nan nan nan nan nan nan nan nan nan nan nan nan nan nan nan nan nan nan nan nan nan nan nan nan nan nan nan nan nan nan nan nan nan nan nan nan nan nan nan nan nan nan nan nan nan nan nan nan nan nan nan nan nan nan nan nan
CAPE
nan nan nan nan nan nan nan nan nan nan nan nan nan nan nan nan nan nan nan nan nan nan nan nan nan nan nan nan nan nan nan nan nan nan nan nan nan nan nan nan nan nan nan nan nan nan nan nan nan nan nan nan nan nan nan nan nan nan nan nan nan nan nan nan nan nan nan nan 0 0 0 1 1 1 2 1 2 2 2 2 2 3 6 8 8 10
nan nan nan nan nan nan nan nan nan nan nan nan nan nan nan nan nan nan nan nan nan nan nan nan nan nan nan nan nan nan nan nan nan nan nan nan nan nan nan nan nan nan nan nan nan nan nan nan nan nan nan nan nan nan nan nan nan nan nan nan nan nan nan nan nan nan nan nan nan nan nan nan nan nan nan nan nan nan 0 0 0 2 3 6 6 8
nan nan nan nan nan nan nan nan nan nan nan nan nan nan nan nan nan nan nan nan nan nan nan nan nan nan nan nan nan nan nan nan nan nan nan nan nan nan nan nan nan nan nan nan nan nan nan nan nan nan nan nan nan nan nan nan nan nan nan nan nan nan nan nan nan nan nan nan nan nan nan nan nan nan nan nan nan nan nan 0 0 1 3 5 5 6
nan nan nan nan nan nan nan nan nan nan nan nan nan nan nan nan nan nan nan nan nan nan nan nan nan nan nan nan nan nan nan nan nan nan nan nan nan nan nan nan nan nan nan nan nan nan nan nan nan nan nan nan nan nan nan nan nan nan nan nan nan nan nan nan nan nan nan nan nan nan nan nan nan nan nan nan nan nan nan 0 0 1 3 5 5 6
nan nan nan nan nan nan nan nan nan nan nan nan nan nan nan nan nan nan nan nan nan nan nan nan nan nan nan nan nan nan nan nan nan nan nan nan nan nan nan nan nan nan nan 0 0 0 0 0 0 0 0 nan nan nan nan nan nan nan nan nan nan nan nan nan nan nan nan nan nan nan nan nan nan nan 0 0 1 1 3 5 5 6 9 10 10 11
nan nan nan nan nan nan nan nan nan nan nan nan nan nan nan nan nan nan nan nan nan nan nan nan nan nan nan nan nan nan nan nan nan nan nan nan nan nan nan nan nan nan 0 1 1 1 0 0 0 0 1 0 0 0 0 0 0 0 0 0 0 1 1 1 1 2 3 3 5 5 6 6 8 8 9 11 13 13 16 20 20 21 23 23 23 24
nan nan nan nan nan nan nan nan nan nan nan nan nan nan nan nan nan nan nan nan nan nan nan nan nan nan nan nan nan nan nan nan nan nan nan nan nan nan nan nan nan nan 1 1 1 2 1 1 1 2 2 2 2 2 3 3 3 4 4 6 6 7 7 10 10 11 10 13 13 13 15 16 16 16 19 19 22 22 25 32 32 36 39 40 40 42
nan nan nan nan nan nan nan nan nan nan nan nan nan nan nan nan nan nan nan nan nan nan nan nan nan nan nan nan nan nan nan nan nan nan nan nan nan nan nan nan nan 1 2 2 2 1 1 2 2 4 6 8 9 9 10 10 10 10 10 11 11 12 12 13 13 13 13 14 16 16 16 17 17 17 19 21 23 23 28 31 31 38 44 53 53 63
nan nan nan nan nan nan nan nan nan nan nan nan nan nan nan nan nan nan nan nan nan nan nan nan nan nan nan nan nan nan nan nan nan nan nan nan nan nan nan nan nan 1 2 2 2 1 1 2 2 5 7 8 8 8 9 8 8 10 10 10 10 11 11 12 12 13 13 14 16 16 17 19 20 20 22 22 25 25 26 28 28 34 41 48 48 56
nan nan nan nan nan nan nan nan nan nan nan nan nan nan nan nan nan nan nan nan nan nan nan nan nan nan nan nan nan nan nan nan nan nan 3 nan nan nan nan nan nan 0 1 1 1 1 1 2 2 3 3 6 7 7 8 8 8 8 9 10 10 11 12 13 13 15 15 17 20 20 22 23 25 25 25 26 30 30 28 30 30 34 42 47 47 56
nan nan nan nan nan nan nan nan nan nan nan nan nan nan nan nan nan nan nan nan nan nan nan nan nan nan nan nan nan nan nan nan nan nan nan nan nan nan nan nan nan nan 0 1 1 0 0 1 1 1 1 2 4 4 6 7 7 8 10 11 11 12 13 15 15 15 18 19 22 22 25 28 29 29 28 29 30 30 33 37 37 42 42 52 52 60
nan nan nan nan nan nan nan nan nan nan nan nan nan nan nan nan nan nan nan nan nan nan nan nan nan nan nan nan nan nan nan nan nan nan nan nan nan nan nan nan nan nan nan nan nan nan 0 nan nan 0 nan nan 3 3 5 7 7 9 10 12 12 14 14 14 14 16 18 20 20 20 26 27 27 27 24 25 26 26 30 32 32 38 40 44 44 51
nan nan nan nan nan nan nan nan nan nan nan nan nan nan nan nan nan nan nan nan nan nan nan nan nan nan nan nan nan nan nan nan nan nan nan nan nan nan nan nan nan nan nan nan nan nan nan nan nan nan nan nan 2 2 5 6 6 10 10 12 12 12 13 14 14 15 16 16 18 18 20 22 24 24 24 27 27 27 26 26 26 30 33 33 33 41
nan nan nan nan nan nan nan nan nan nan nan nan nan nan nan nan nan nan nan nan nan nan nan nan nan nan nan nan nan nan nan nan nan nan nan nan nan nan nan nan nan nan nan nan nan nan nan nan nan nan nan nan nan nan 3 7 7 10 10 10 10 11 12 12 12 12 14 15 16 16 17 19 23 23 23 24 24 24 24 24 24 28 31 33 33 40
nan nan nan nan nan nan nan nan nan nan nan 0 nan nan nan nan nan nan nan nan nan nan nan nan nan nan nan nan nan nan nan nan nan nan nan nan nan nan nan nan nan nan nan nan nan nan nan nan nan nan nan nan nan nan 0 2 2 12 12 11 11 11 12 12 12 13 14 16 17 17 18 20 22 22 25 25 26 26 25 25 25 28 31 33 33 37
nan nan nan nan nan nan 1 0 0 0 nan nan nan nan nan nan nan nan nan nan nan nan nan nan nan nan nan nan nan nan nan nan nan nan nan nan nan nan nan nan nan nan nan nan nan nan nan nan nan nan nan nan 0 0 2 5 5 12 13 13 13 14 13 13 13 15 15 17 18 18 20 24 24 24 25 26 25 25 24 25 25 30 33 35 35 37
nan nan nan nan nan 0 2 0 0 0 0 nan nan nan nan 0 0 0 nan nan nan nan nan nan nan nan nan nan nan nan nan nan nan nan nan nan nan nan nan nan nan nan nan nan nan nan nan nan nan nan nan nan 0 0 2 7 7 12 14 14 14 14 14 13 13 15 16 17 19 19 23 24 24 24 23 25 24 24 25 27 27 30 34 35 35 40
nan nan nan 0 0 2 3 0 0 0 0 0 nan nan nan 0 nan nan nan nan nan nan nan nan nan nan nan nan nan nan nan nan nan nan nan nan nan nan nan nan nan nan nan nan nan nan nan nan nan nan nan nan 1 1 5 9 9 11 15 15 15 13 13 13 13 15 18 19 22 22 26 24 25 25 25 26 26 26 28 29 29 32 35 37 37 41
0 nan 0 1 1 2 3 1 0 0 1 0 0 0 0 nan nan nan nan nan nan nan nan nan nan nan nan nan nan nan nan nan nan nan nan nan nan nan nan nan nan nan nan nan nan nan nan nan nan nan nan 0 4 4 8 10 10 12 14 13 13 13 13 15 15 19 23 26 26 26 26 26 27 27 29 31 34 34 36 39 39 40 44 45 45 47
1 0 1 2 2 3 3 1 3 3 3 2 0 0 0 nan nan nan nan nan nan nan nan nan nan nan nan nan nan nan nan nan nan nan nan nan nan nan nan nan nan nan nan nan nan nan nan nan nan nan nan 0 8 8 10 10 10 13 15 15 15 19 20 26 26 27 29 30 30 30 32 34 35 35 36 37 42 42 45 48 48 48 52 53 53 55
1 2 4 5 5 2 2 1 4 4 6 3 nan nan nan nan nan nan nan nan nan nan nan nan nan nan nan nan nan nan nan nan nan nan nan nan nan nan nan nan nan nan nan nan nan nan nan nan nan nan nan 2 9 9 10 11 11 17 19 24 24 26 26 28 28 29 34 37 36 36 37 40 42 42 43 45 46 46 50 53 53 57 62 63 63 63
2 3 3 7 7 4 5 0 7 7 5 2 0 0 nan nan nan nan nan nan nan nan nan nan nan nan nan nan nan nan nan nan nan nan nan nan nan nan nan nan nan nan nan nan nan nan nan nan nan nan nan 10 7 7 9 15 15 24 26 29 29 31 31 32 32 36 39 40 39 39 40 42 44 44 44 48 52 52 56 61 61 63 71 71 71 71
6 7 5 6 6 5 4 0 nan nan 2 1 1 1 nan nan nan nan nan nan nan nan nan nan nan nan nan nan nan nan nan nan nan nan nan nan nan nan nan nan nan nan nan nan nan nan nan nan nan nan nan 11 5 5 10 19 19 29 31 34 34 32 35 31 31 33 39 41 42 42 40 42 45 45 47 48 52 52 59 67 67 72 72 77 77 74
6 6 6 5 5 5 3 nan nan nan nan nan nan nan nan nan nan nan nan nan nan nan nan nan nan nan nan nan nan nan nan nan nan nan nan nan nan nan nan nan nan nan nan nan nan nan nan nan nan nan nan nan 3 3 15 26 26 33 35 34 34 35 34 32 32 33 37 39 39 39 42 43 45 45 46 49 56 56 63 69 69 71 71 67 67 67
5 6 7 7 7 14 8 3 0 0 nan nan nan nan nan nan nan nan nan nan nan nan nan nan nan nan nan nan nan nan nan nan nan nan nan nan nan nan nan nan nan nan nan nan nan nan nan nan nan nan nan nan 2 2 17 28 28 33 31 32 32 34 31 33 33 35 36 34 34 34 39 43 47 47 48 52 55 55 67 72 72 70 64 60 60 52
22 22 18 25 25 35 40 42 38 38 15 nan nan nan nan nan nan nan nan nan nan nan nan nan nan nan nan nan nan nan nan nan nan nan nan nan nan nan nan nan nan nan nan nan nan nan nan nan nan nan nan nan 0 0 11 24 24 26 25 27 27 28 29 30 30 34 35 30 30 30 36 40 44 44 47 50 56 56 65 70 70 68 59 48 48 45
40 41 43 41 41 39 40 45 44 44 41 22 0 0 nan nan nan nan nan nan nan nan nan nan nan nan nan nan nan nan nan nan nan nan nan nan nan nan nan nan nan nan nan nan nan nan nan nan nan nan nan nan nan nan 5 13 13 17 18 20 20 25 27 33 33 38 34 28 28 28 31 38 42 42 47 50 53 53 60 66 66 60 52 44 44 35
34 35 35 33 33 31 30 38 44 44 41 33 28 28 nan nan nan nan nan nan nan nan nan nan nan nan nan nan nan nan nan nan nan nan nan nan nan nan nan nan nan nan nan nan nan nan nan nan nan nan nan nan nan nan nan 5 5 8 9 13 13 21 28 33 33 35 29 25 25 25 31 36 39 39 45 46 50 50 55 61 61 56 44 14 14 nan
27 31 31 30 30 29 27 30 33 33 36 33 31 31 2 nan nan nan nan nan nan nan nan nan nan nan nan nan nan nan nan nan nan nan nan nan nan nan nan nan nan nan nan nan nan nan nan nan nan nan nan nan nan nan nan nan nan 0 2 5 5 14 25 34 34 33 27 23 24 24 28 31 39 39 45 46 48 48 53 52 52 50 33 1 1 nan
10 20 22 26 26 24 21 9 24 24 31 32 31 31 13 nan nan nan nan nan nan nan nan nan nan nan nan nan nan nan nan nan nan nan nan nan nan nan nan nan nan nan 0 nan nan nan nan nan nan nan nan nan nan nan nan nan nan nan nan 1 1 9 24 31 31 31 23 20 20 20 22 29 38 38 40 46 45 45 52 55 55 46 16 0 0 nan
1 nan nan 2 2 2 1 nan 5 5 23 31 28 28 11 nan nan nan nan nan nan nan nan nan nan nan nan nan nan nan nan nan nan nan nan nan nan nan nan nan nan nan nan nan nan nan nan nan nan nan nan nan nan nan nan nan nan nan nan nan nan nan 29 33 33 28 21 15 14 14 16 21 31 31 38 41 45 45 51 56 56 44 11 0 0 nan
0 nan nan nan nan nan nan nan nan nan nan nan nan nan nan nan nan nan nan nan nan nan nan nan nan nan nan nan nan nan nan nan nan nan nan nan nan nan nan nan nan nan nan nan nan nan nan nan nan nan nan nan nan nan nan nan nan nan nan nan nan nan 9 17 17 8 3 5 9 9 12 14 16 16 17 23 34 34 43 47 47 49 16 5 5 6
1 nan nan nan nan nan nan nan nan nan nan nan nan nan nan nan nan nan nan nan nan nan nan nan nan nan nan nan nan nan nan nan nan nan nan nan nan nan nan nan nan nan nan nan nan nan nan nan nan nan nan nan nan nan nan nan nan nan nan nan nan nan 0 nan nan nan nan nan 1 1 10 10 13 13 12 14 28 28 40 45 45 47 35 7 7 9
nan nan nan nan nan nan nan nan nan nan nan nan nan nan nan nan nan nan nan nan nan nan nan nan nan nan nan nan nan nan nan nan 0 0 0 nan nan nan nan nan nan nan nan nan nan nan nan nan nan nan nan nan nan nan nan nan nan nan nan nan nan nan nan nan nan nan nan nan nan nan 0 1 9 9 6 8 21 21 36 43 43 47 39 18 18 11
nan nan nan nan nan nan nan nan nan nan nan nan nan nan nan nan nan nan nan nan nan nan nan nan nan nan nan nan nan nan nan nan nan nan 0 nan nan nan nan nan nan nan nan nan nan nan nan nan nan nan 0 nan nan nan nan nan nan nan nan nan nan nan 0 nan nan nan nan nan nan nan nan nan nan nan nan 3 17 17 32 41 41 44 37 34 34 20
nan nan nan nan nan nan nan nan nan nan nan nan nan nan nan nan nan nan nan nan nan nan nan nan nan nan nan nan nan nan nan nan nan nan nan nan nan nan nan nan nan nan nan nan nan nan nan nan nan 0 3 0 nan nan nan nan nan nan nan nan nan nan 1 nan nan nan nan nan nan nan nan nan 0 0 nan 5 13 13 23 33 33 44 36 30 30 21
nan nan nan nan nan nan nan nan nan nan nan nan nan nan nan nan nan nan nan nan nan nan nan nan nan nan nan nan nan nan nan nan nan nan nan nan nan nan nan nan nan nan nan nan nan nan nan nan nan 0 1 nan nan nan nan nan nan nan nan nan nan nan 0 1 1 0 nan nan nan nan nan nan 1 1 0 5 0 0 6 21 21 33 32 24 24 17
0 nan nan nan nan nan nan nan nan nan nan nan nan nan nan nan nan nan nan nan nan nan nan nan nan nan nan nan nan nan nan nan nan nan nan nan nan nan nan nan nan nan nan nan nan nan nan nan nan 0 2 nan nan nan nan nan nan nan nan nan nan nan nan 0 0 3 nan nan nan nan nan nan nan nan nan nan nan nan nan nan nan 14 14 0 0 8
nan nan nan nan nan nan nan nan nan nan nan nan nan nan nan nan nan nan nan nan nan nan nan nan nan nan nan nan nan nan nan nan nan nan nan nan nan nan nan nan nan nan nan nan nan nan nan nan nan 0 3 nan nan nan nan nan nan nan nan nan nan nan nan nan nan 5 4 nan 0 0 nan nan nan nan nan nan nan nan nan nan nan 8 nan nan nan nan
0 nan nan nan nan nan nan nan nan nan nan nan nan nan nan nan nan nan nan nan nan nan nan nan nan nan nan nan nan nan nan nan nan nan nan nan nan nan nan nan nan nan nan nan nan nan 0 0 0 1 1 nan nan nan nan nan nan nan nan nan nan nan nan nan nan nan 0 nan nan nan nan nan nan nan nan nan nan nan nan nan nan 8 2 nan nan nan
0 nan nan nan nan nan nan nan nan nan nan nan nan nan nan nan nan nan nan nan nan nan nan nan nan nan nan nan nan nan nan nan nan nan nan nan nan nan nan nan nan nan nan nan nan nan nan 0 0 0 nan nan nan nan nan nan nan nan 2 nan nan nan nan nan nan nan nan 0 0 0 2 nan nan nan nan nan nan nan nan nan nan 4 5 nan nan nan
2 nan nan nan nan nan nan nan nan nan nan nan nan nan nan nan nan nan nan nan nan nan nan nan nan nan nan nan nan nan nan nan nan nan nan nan nan nan nan nan nan nan nan nan nan nan nan nan nan nan nan nan nan nan nan nan nan nan nan nan nan nan nan nan nan nan nan 0 0 0 10 nan nan nan nan nan nan nan nan nan nan 13 13 nan nan nan
nan nan nan nan nan nan nan nan nan nan nan nan nan nan nan nan nan nan nan nan nan nan nan nan nan nan nan nan nan nan nan nan nan nan nan nan nan nan nan nan nan nan nan nan nan nan nan nan nan nan nan nan nan nan nan nan nan nan nan nan nan 1 0 nan nan nan nan nan nan nan 2 nan nan nan nan nan nan nan nan nan nan 12 21 nan nan nan
nan nan nan nan nan nan nan nan nan nan nan nan nan nan nan nan nan nan nan nan nan nan nan nan nan nan nan nan nan nan nan nan nan nan nan nan nan nan nan nan nan nan nan nan nan nan nan nan nan nan nan nan nan nan nan nan nan nan nan nan nan 0 0 nan nan nan nan nan nan nan nan nan nan nan nan nan nan nan nan nan nan nan nan nan nan nan
nan nan nan nan nan nan nan nan nan nan nan nan nan nan nan nan nan nan nan nan nan nan nan nan nan nan nan nan nan nan nan nan nan nan nan nan nan nan nan nan nan nan nan nan nan nan nan nan nan nan nan nan nan nan nan nan nan nan nan 0 0 1 nan nan nan nan nan nan nan nan nan nan nan nan nan nan nan nan nan nan nan nan nan nan nan nan
nan nan nan nan nan nan nan nan nan nan nan nan nan nan nan nan nan nan nan nan nan nan nan nan nan nan nan nan nan nan nan nan nan nan nan nan nan nan nan nan nan nan nan nan nan nan nan nan nan nan nan nan nan nan nan nan nan nan nan 0 0 nan nan nan nan nan nan nan nan nan nan nan nan nan nan nan nan nan nan nan nan nan nan nan nan nan
nan nan nan nan nan nan nan nan nan nan nan nan nan nan nan nan nan nan nan nan nan nan nan nan nan nan nan nan nan nan nan nan nan nan nan nan nan nan nan nan nan nan nan nan nan nan nan nan nan nan nan nan nan nan nan nan nan nan nan nan nan nan nan nan nan nan nan nan nan nan nan nan nan nan nan nan nan nan nan nan nan nan nan nan nan nan
nan nan nan nan nan nan nan nan nan nan nan nan nan nan nan nan nan nan nan nan nan nan nan nan nan nan nan nan 0 0 0 nan nan nan nan nan nan nan nan nan nan nan nan nan nan nan nan nan nan nan nan nan nan nan nan nan nan nan nan nan nan nan nan nan nan nan nan nan nan nan nan nan nan nan nan nan nan nan nan nan nan nan nan nan nan nan
nan nan nan nan nan nan nan nan nan nan nan nan nan nan nan nan 0 0 nan nan nan nan nan nan nan nan nan nan 0 0 2 0 nan nan nan nan nan nan nan nan nan nan nan nan nan nan nan nan nan nan nan nan nan nan nan nan nan nan nan nan nan nan nan nan nan nan nan nan nan nan nan nan nan nan nan 0 0 0 nan nan nan nan nan nan nan nan
nan nan nan nan nan nan nan nan nan nan nan nan nan nan nan nan nan nan nan nan nan nan nan nan nan nan nan nan 0 0 1 0 nan nan nan nan nan nan nan nan nan nan nan nan nan nan nan nan nan nan nan nan nan nan nan nan nan nan nan nan nan nan nan nan nan nan nan nan nan nan nan nan nan nan nan 0 nan nan nan nan nan nan nan nan nan nan
nan nan nan nan nan nan nan nan nan nan nan nan nan nan nan nan nan nan nan nan nan nan nan nan nan nan nan nan 0 0 1 nan nan nan nan nan nan nan nan nan nan nan nan nan nan nan nan nan nan nan nan 5 nan nan nan nan nan nan nan nan nan nan nan nan nan nan nan nan nan nan nan nan nan nan nan nan nan nan nan nan nan nan nan nan nan nan